This is the latest recevied weather packets stored in our database for station/object KI8L. If no packets are shown the sender has not sent any weather packets the latest 10 day(s).
| Time | Temp. | Humidity | Pressure | Rain* | Wind** | Luminosity | Snow |
|---|---|---|---|---|---|---|---|
| 1777223409 | 10.56° C | 93% | 1022.8 hPa | 0 mm | - | 117 W/m² | - |
| 1777223107 | 10.56° C | 92% | 1022.6 hPa | 0 mm | - | 125 W/m² | - |
| 1777222803 | 10.56° C | 93% | 1022.7 hPa | 0 mm | - | 128 W/m² | - |
| 1777222502 | 10.56° C | 92% | 1022.5 hPa | 0 mm | - | 130 W/m² | - |
| 1777222199 | 11.11° C | 92% | 1022.5 hPa | 0 mm | - | 133 W/m² | - |
| 1777221897 | 10.56° C | 94% | 1022.5 hPa | 0 mm | - | 112 W/m² | - |
| 1777221597 | 10.56° C | 92% | 1022.4 hPa | 0 mm | - | 111 W/m² | - |
| 1777221295 | 10° C | 93% | 1022.5 hPa | 0 mm | - | 119 W/m² | - |
| 1777220991 | 10.56° C | 93% | 1022.5 hPa | 0 mm | - | 124 W/m² | - |
| 1777220686 | 10° C | 93% | 1022.4 hPa | 0 mm | - | 124 W/m² | - |
| 1777220383 | 10° C | 94% | 1022.7 hPa | 0 mm | - | 127 W/m² | - |
| 1777220083 | 10° C | 95% | 1022.4 hPa | 0 mm | - | 127 W/m² | - |
| 1777219780 | 10° C | 94% | 1022.5 hPa | 0 mm | - | 108 W/m² | - |
| 1777219478 | 10° C | 94% | 1022.3 hPa | 0 mm | - | 108 W/m² | - |
| 1777219173 | 10° C | 94% | 1022.3 hPa | 0 mm | - | 104 W/m² | - |
| 1777218869 | 10° C | 95% | 1022.5 hPa | 0 mm | - | 103 W/m² | - |
| 1777218560 | 10° C | 94% | 1022.3 hPa | 0 mm | - | 110 W/m² | - |
| 1777218260 | 10° C | 94% | 1022.3 hPa | 0 mm | - | 107 W/m² | - |
| 1777217958 | 10° C | 94% | 1022.4 hPa | 0 mm | - | 111 W/m² | - |
| 1777217658 | 10° C | 95% | 1022.2 hPa | 0 mm | - | 110 W/m² | - |
| 1777217354 | 10° C | 94% | 1022.2 hPa | 0 mm | - | 117 W/m² | - |
| 1777217050 | 10° C | 94% | 1022.2 hPa | 0 mm | - | 118 W/m² | - |
| 1777216748 | 10° C | 95% | 1022.2 hPa | 0 mm | - | 105 W/m² | - |
| 1777216443 | 9.44° C | 95% | 1022.1 hPa | 0 mm | - | 97 W/m² | - |
| 1777216142 | 9.44° C | 95% | 1022.1 hPa | 0 mm | - | 90 W/m² | - |
* Rain latest hour (hover to see other rain measurements)
** Current wind speed in m/s (hover to see current wind gust speed)